skip to main content

Salvage Dealers List

Click on any column heading to sort by that column or use the search field below to enter search terms.

Click on a Business Name for more detailed information about that dealer.

Business NamePhonePhysical AddressCityZipDealerIDLicense NumberExpires
ADVANCE AUTOS(806) 291-87871505 N COLUMBIAPLAINVIEW79072436600952436602014-12-03 00:00:00
ADVANCED CAR CONNECTION(936) 223-92301271 FM 1988 EGOODRICH77335480161876480162014-09-19 00:00:00
ADVANCED POWER AUTO SALES(936) 371-76757723 S US HWY 59NACOGDOCHES75964519711742519712014-05-14 00:00:00
ADVANTAGE(832) 330-62991308 NORWOOD STDEER PARK77536499061012499062014-06-22 00:00:00
ADVANTAGE(832) 330-62991308 NORWOOD STDEER PARK77536499061016499062014-06-22 00:00:00
ADVANTAGE AUTO BODY REPAIRS(214) 434-67892303 QUARRY STREETDALLAS75212517990576517992014-04-18 00:00:00
ADVANTAGE AUTO SALES(817) 536-00403309 MANSFIELD HWYFORT WORTH761196832202006832014-10-30 00:00:00
ADVANTAGE AUTO SALES(817) 536-00403309 MANSFIELD HWYFORT WORTH761196832206006832015-04-22 00:00:00
ADVANTAGE AUTO SALES OF WICHITA FALLS(940) 689-00012452 ARENA RD.WITCHITA FALLS76310483972435483972014-11-21 00:00:00
ADVANTAGE AUTOMOBILE BODY PARTS INC(817) 808-75402909 VAUGHN BLVDFT WORTH7610570572206070572014-10-31 00:00:00
ADVANTAGE HOUSTON MOTORS LLC(281) 250-508612822 MCNAIR STHOUSTON77015416631012416632015-03-04 00:00:00
ADVANTAGE HOUSTON MOTORS LLC(281) 250-508612822 MCNAIR STHOUSTON77015416631016416632015-03-04 00:00:00
ADVANTAGE MOTORS(214) 551-5269615 E HOUSTONSHERMAN75090510190912510192015-01-02 00:00:00
ADVANTAGE MOTORS(214) 551-5269615 E HOUSTONSHERMAN75090510190916510192015-01-02 00:00:00
ADVANTAGE SALVAGE AND AUTO PARTS, LLC(361) 289-50005330 AGNES STCORPUS CHRISTI78405331731782331732014-09-17 00:00:00
ADVENTURE AUTO(936) 634-17001709 WEST FRANK AVELUFKIN75904411130032411132014-10-03 00:00:00
ADVENTURE AUTO(936) 634-17001709 WEST FRANK AVELUFKIN75904411130036411132014-08-22 00:00:00
ADWAJ IMPORT EXPORT(832) 620-63388700 COMMERCE PARK DR #228CHOUSTON77036418601012418602014-06-06 00:00:00
ADWAJ IMPORT EXPORT(832) 620-63388700 COMMERCE PARK DR #228CHOUSTON77036418601016418602015-03-04 00:00:00
AEGIINE AUTOS(832) 541-35717447 HARWIN DR, STE 188HOUSTON77036522601012522602014-07-02 00:00:00
AERO AUTO SALES(469) 438-93461930 MICHIGAN AVEDALLAS75216433250572433252014-10-14 00:00:00
AERO AUTO SALES(469) 438-93461930 MICHIGAN AVEDALLAS75216433250576433252014-10-14 00:00:00
AEROMARINE ENTERPRISE(832) 279-14216826 CADDO LAKE LANEHOUSTON77083358351016358352015-02-01 00:00:00
AEROPLACE SERVICES INCORPORATED(469) 964-187515 FIELDER RDDENISON75020526470912526472014-09-04 00:00:00
AF1 RACING, INC(512) 627-0278699 W SAN ANTONIONEW BRAUNFELS78130506910461506912014-10-30 00:00:00
AF1 RACING, INC(830) 626-3966699 W SAN ANTONIONEW BRAUNFELS78130506910461506912014-10-30 00:00:00
AFFORDABLE AUTO ENTERPRISES(281) 651-652219224 KUYKENDAHLSPRING77379417381014417382015-03-09 00:00:00
AFFORDABLE AUTO REPAIR(940) 458-198711721 MARION RDSANGER76266479290616479292014-09-19 00:00:00
AFFORDABLE AUTO SALES(832) 407-64312622 MUEGGE RDROSENBERG77471397060795397062015-03-21 00:00:00
AFFORDABLE AUTOS OF DALLAS(214) 267-8006825 PASSIVE DRIVECEDAR HILL75104497640576497642014-05-30 00:00:00
AFFORDABLE CAR CARRIERS SERVICE(713) 459-5893106 VALE STREETSOUTH HOUSTON77587523351012523352014-07-17 00:00:00
AFFORDABLE CAR CARRIERS SERVICE(713) 459-5893106 VALE STREETSOUTH HOUSTON77587523351016523352014-07-17 00:00:00
AFFORDABLE CAR INS.(832) 466-8929240 JILL STSHEPHERD77371517952046517952014-04-18 00:00:00
AFFORDABLE CARS AND SERVICES(832) 630-25705710 JAMES PLACEHOUSTON77085534221012534222015-01-17 00:00:00
AFFORDABLE MOTORS(956) 570-86971805 N 34TH STMCALLEN78501505411086505412014-10-18 00:00:00
AFFORDABLE SALES(281) 987-03005204 NORTHINGTONHOUSTON77039308371016308372014-07-01 00:00:00
AFFORDABLE USED CARS(409) 347-12173730 EAST LUCASBEAUMONT77708438661236438662015-02-02 00:00:00
AFFORDABLES PLUS AUTO SALES(832) 267-34501310 HANCOCKPASADENA77502472390572472392015-05-17 00:00:00
AFFORDABLES PLUS AUTO SALES(832) 267-34501310 HANCOCKPASADENA77502472390576472392015-05-20 00:00:00
AFRICA AUTO REPAIR(832) 891-73764101 RUTLANDHOUSTON77018519061012519062014-05-03 00:00:00
AFRICAN GIFT STORE(757) 342-89272801 WALNUT BEND LN #55HOUSTON77042443101012443102014-08-09 00:00:00
AG AUTO SALES(713) 870-0875111 BLUE BELLHOUSTON77037458471012458472014-10-27 00:00:00
AG MOTORS(713) 884-087217930 SUNSHINE TRACE LANERICHMOND77407480440795480442014-09-20 00:00:00
AG MOTORS(713) 884-087217930 SUNSHINE TRACE LANERICHMOND77407480440796480442014-09-20 00:00:00
AG MOTORS(956) 237-0116201 E GUERRERO STLAREDO78040489392406489392015-02-15 00:00:00
AGAPE LOVE(713) 683-10402008 D WIRT RDHOUSTON77055354811012354812015-03-29 00:00:00
AGHADE VENTURE AUTO BROKER(512) 803-51691108 DORAS DRPFLUGERVILLE78660392492276392492014-11-07 00:00:00
AGU MOTORS INTERNATIONAL(972) 748-41602606 HIGHLAND RD 205DALLAS75228515870572515872014-04-11 00:00:00
AGUILAR AUTO SALE(409) 457-467113019 TELEVISTAHOUSTON77037507651012507652014-11-09 00:00:00
AGUILAR AUTO SALE(409) 457-467113019 TELEVISTAHOUSTON77037507651016507652014-11-09 00:00:00

Copyright © 2014 Texas Department of Motor Vehicles. All rights reserved. - 4000 Jackson Ave, Austin, TX 78731